{"data":{"norad_id":43572,"intl_designator":"2018-061D","name":"IRIDIUM 165","alt_names":[],"object_type":"PAYLOAD","status":"ACTIVE","operator":null,"country":"US","launch_date":"2018-07-25","launch_site_code":"AFWTR","launch_vehicle":null,"mission":null,"orbit_class":"UNKNOWN","rcs_meters":null,"size_class":null,"mass_kg":null,"dimensions":null,"purposes":["comms"],"wikipedia_slug":null,"has_3d_model":false,"image_url":null,"decayed_at":null,"tle_current":{"epoch":"2026-05-25T01:20:18.426048Z","epoch_age_seconds":66704,"freshness":"FRESH","line1":"1 43572U 18061D   26145.05576882  .00000038  00000+0  66763-5 0  9999","line2":"2 43572  86.3969  66.4736 0002127  82.1846 277.9591 14.34217911410072","mean_motion":14.34217911,"eccentricity":0.0002127,"inclination_deg":86.3969,"raan_deg":66.4736,"arg_perigee_deg":82.1846,"mean_anomaly_deg":277.9591,"bstar":6.6763e-6,"rev_number":41007,"period_min":100.40315275354,"perigee_km":776.14457940101,"apogee_km":779.18865826046,"semimajor_km":7155.8036188307,"source":"CELESTRAK","updated_at":"2026-05-25T13:38:14.811825Z"}}}